Weather History for PHLI - December, 2013

Change the Weather History Date:

Sunday, December 8, 2013

  Actual Average Record
Temperature  
Mean Temperature 75 °F 74 °F  
Max Temperature 80 °F 79 °F 85 °F (1985)
Min Temperature 69 °F 69 °F 60 °F (1966)
Degree Days  
Heating Degree Days 0 0  
Month to date heating degree days 0 0  
Since 1 July heating degree days 0 0  
Cooling Degree Days 10 9  
Month to date cooling degree days 72 72  
Year to date cooling degree days 3497 3763  
Growing Degree Days 24 (Base 50)    
Moisture  
Dew Point 72 °F    
Average Humidity 90    
Maximum Humidity 100    
Minimum Humidity 79    
Precipitation  
Precipitation 0.43 in 0.16 in 5.07 in (1967)
Month to date precipitation 4.01 1.27  
Year to date precipitation 35.44 33.12  
Snow  
Snow 0.00 in - - ()
Month to date snowfall 0.0  
Since 1 July snowfall 0.0  
Snow Depth 0.00 in    
Sea Level Pressure  
Sea Level Pressure 29.99 in    
Wind  
Wind Speed 6 mph (South)    
Max Wind Speed 21 mph    
Max Gust Speed 24 mph    
Visibility 9 miles    
Events Rain    
T = Trace of Precipitation, MM = Missing Value Source: NWS Daily Summary

Daily Weather History Graph

Daily Weather History Graph

Search for Another Location

Airport or City:

Trip Planner

Search our weather history database for the weather conditions in past years. The results will help you decide how hot, cold, wet, or windy it might be!

Date:

Astronomy

Dec. 08, 2013 Rise Set
Actual Time 7:04 AM HST 5:54 PM HST
Civil Twilight 6:40 AM HST 6:18 PM HST
Nautical Twilight 6:12 AM HST 6:46 PM HST
Astronomical Twilight 5:45 AM HST 7:13 PM HST
Moon 12:05 PM HST (12/8) No Moon Set
Length of Visible Light 11h 38m
Length of Day
10h 49m
Waxing Crescent, 42% of the Moon is Illuminated
Dec 8
Waxing Crescent
Dec 9
First Quarter
Dec 16
Full
Dec 25
Last Quarter
Jan 1
New

Hourly Weather History & Observations

Time (HST) Temp. Dew Point Humidity Pressure Visibility Wind Dir Wind Speed Gust Speed Precip Events Conditions
12:53 AM 71.1 °F 68.0 °F 90% 29.96 in 7.0 mi WSW 8.1 mph - 0.00 in Rain Rain
1:53 AM 73.0 °F 69.1 °F 87% 29.96 in 10.0 mi Calm Calm - 0.03 in   Mostly Cloudy
2:53 AM 72.0 °F 69.1 °F 91% 29.94 in 10.0 mi WSW 3.5 mph - 0.00 in   Partly Cloudy
3:31 AM 71.6 °F 69.8 °F 94% 29.94 in 10.0 mi West 4.6 mph - 0.11 in Rain Light Rain
3:53 AM 73.0 °F 69.1 °F 87% 29.93 in 10.0 mi Variable 3.5 mph - 0.11 in   Mostly Cloudy
4:53 AM 71.1 °F 68.0 °F 90% 29.94 in 10.0 mi West 4.6 mph - N/A   Partly Cloudy
5:11 AM 69.8 °F 68.0 °F 94% 29.94 in 10.0 mi West 6.9 mph - N/A   Mostly Cloudy
5:34 AM 69.8 °F 69.8 °F 100% 29.95 in 10.0 mi WSW 4.6 mph - N/A   Partly Cloudy
5:53 AM 70.0 °F 68.0 °F 93% 29.95 in 10.0 mi West 4.6 mph - N/A   Partly Cloudy
6:18 AM 69.8 °F 69.8 °F 100% 29.96 in 10.0 mi West 4.6 mph - N/A   Mostly Cloudy
6:39 AM 71.6 °F 69.8 °F 94% 29.96 in 10.0 mi West 3.5 mph - N/A   Scattered Clouds
6:53 AM 71.1 °F 69.1 °F 93% 29.96 in 10.0 mi WSW 3.5 mph - N/A   Mostly Cloudy
7:53 AM 72.0 °F 70.0 °F 93% 29.99 in 10.0 mi WSW 3.5 mph - N/A   Mostly Cloudy
8:49 AM 78.8 °F 73.4 °F 83% 30.00 in 10.0 mi SSE 8.1 mph - N/A   Overcast
8:53 AM 78.1 °F 72.0 °F 81% 30.00 in 10.0 mi SSE 9.2 mph - N/A   Mostly Cloudy
9:19 AM 78.8 °F 71.6 °F 78% 30.01 in 10.0 mi SE 6.9 mph - N/A   Mostly Cloudy
9:37 AM 73.4 °F 69.8 °F 88% 30.02 in 1.8 mi SSE 10.4 mph 23.0 mph 0.06 in Rain Heavy Rain
9:45 AM 73.4 °F 71.6 °F 94% 30.02 in 3.0 mi SSE 6.9 mph - 0.11 in Rain Light Rain
9:53 AM 73.9 °F 73.0 °F 97% 30.02 in 10.0 mi SSE 6.9 mph - 0.11 in Rain Light Rain
10:39 AM 75.2 °F 73.4 °F 94% 30.02 in 10.0 mi Calm Calm - 0.00 in   Overcast
10:53 AM 75.9 °F 73.0 °F 91% 30.01 in 10.0 mi Calm Calm - 0.00 in   Overcast
11:28 AM 75.2 °F 73.4 °F 94% 30.01 in 10.0 mi SE 10.4 mph - 0.00 in Rain Light Rain
11:32 AM 75.2 °F 73.4 °F 94% 30.01 in 5.0 mi South 11.5 mph - 0.00 in Rain Rain
11:38 AM 73.4 °F 73.4 °F 100% 30.01 in 1.8 mi SE 6.9 mph - 0.04 in Rain Heavy Rain
11:46 AM 73.4 °F 73.4 °F 100% 30.00 in 3.0 mi South 5.8 mph - 0.11 in Rain Light Rain
11:53 AM 73.9 °F 73.0 °F 97% 30.00 in 7.0 mi South 3.5 mph - 0.12 in Rain Light Rain
12:53 PM 75.9 °F 73.0 °F 91% 29.97 in 10.0 mi ENE 3.5 mph - 0.00 in   Overcast
1:05 PM 75.2 °F 73.4 °F 94% 29.97 in 9.0 mi Calm Calm - 0.00 in Rain Light Rain
1:30 PM 75.2 °F 73.4 °F 94% 29.97 in 10.0 mi Calm Calm - 0.00 in Rain Light Rain
1:43 PM 75.2 °F 73.4 °F 94% 29.97 in 10.0 mi SE 9.2 mph - 0.00 in   Overcast
1:53 PM 75.0 °F 72.0 °F 90% 29.97 in 10.0 mi SE 5.8 mph - 0.00 in Rain Light Rain
2:00 PM 75.2 °F 73.4 °F 94% 29.97 in 10.0 mi SSE 6.9 mph - 0.00 in   Overcast
2:15 PM 77.0 °F 73.4 °F 89% 29.96 in 10.0 mi SSE 10.4 mph - 0.00 in   Overcast
2:53 PM 79.0 °F 73.0 °F 82% 29.94 in 10.0 mi SSE 10.4 mph - 0.00 in   Mostly Cloudy
3:53 PM 79.0 °F 72.0 °F 79% 29.94 in 10.0 mi South 8.1 mph - N/A   Partly Cloudy
4:53 PM 78.1 °F 71.1 °F 79% 29.96 in 10.0 mi SSE 4.6 mph - N/A   Clear
5:53 PM 75.9 °F 71.1 °F 85% 29.99 in 10.0 mi East 6.9 mph - N/A   Clear
6:28 PM 75.2 °F 71.6 °F 89% 30.00 in 10.0 mi ESE 6.9 mph - N/A   Mostly Cloudy
6:53 PM 75.9 °F 72.0 °F 87% 29.99 in 10.0 mi East 5.8 mph - N/A   Overcast
7:53 PM 73.9 °F 73.0 °F 97% 30.01 in 10.0 mi South 8.1 mph - 0.05 in Rain Light Rain
8:53 PM 73.9 °F 72.0 °F 93% 30.01 in 10.0 mi SSE 11.5 mph - 0.01 in Rain Light Rain
8:58 PM 73.4 °F 71.6 °F 94% 30.02 in 10.0 mi SSW 9.2 mph - 0.00 in Rain Light Rain
9:03 PM 73.4 °F 71.6 °F 94% 30.02 in 10.0 mi South 8.1 mph - 0.00 in Rain Light Rain
9:11 PM 73.4 °F 71.6 °F 94% 30.02 in 10.0 mi South 9.2 mph - 0.00 in   Overcast
9:35 PM 73.4 °F 73.4 °F 100% 30.02 in 10.0 mi SSW 5.8 mph - 0.00 in   Mostly Cloudy
9:51 PM 75.2 °F 73.4 °F 94% 30.03 in 10.0 mi South 6.9 mph - 0.00 in   Mostly Cloudy
9:53 PM 75.0 °F 73.0 °F 94% 30.02 in 10.0 mi South 5.8 mph - 0.00 in   Overcast
10:02 PM 75.2 °F 73.4 °F 94% 30.03 in 10.0 mi South 6.9 mph - N/A   Overcast
10:53 PM 75.0 °F 72.0 °F 90% 30.02 in 10.0 mi SSW 5.8 mph - N/A   Mostly Cloudy
11:53 PM 75.0 °F 72.0 °F 90% 30.02 in 10.0 mi South 8.1 mph - N/A   Partly Cloudy